Regional Weather Roundup
Issued by NWS

Home | Current Version | Previous Version | Graphics & Text | Print | Product List | Glossary On
Versions: 1 2 3 4 5 6 7 8 9 10 11 12 13 14 15 16 17 18 19 20 21 22 23 24 25 26 27 28 29 30 31 32 33 34 35 36 37 38 39 40 41 42 43 44 45 46 47 48 49 50
000
ASUS43 KFSD 271502
RWRSD

WEATHER ROUNDUP FOR SOUTH DAKOTA
NATIONAL WEATHER SERVICE SIOUX FALLS SD
1000 AM CDT THU AUG 27 2015

NOTE: "FAIR" INDICATES FEW OR NO CLOUDS BELOW 12,000 FEET WITH NO
SIGNIFICANT WEATHER AND/OR OBSTRUCTIONS TO VISIBILITY.


SDZ001>005-009-010-012>017-271600-
NORTHWEST AND NORTH CENTRAL SOUTH DAKOTA

CITY           SKY/WX    TMP DP  RH WIND       PRES   REMARKS
BUFFALO          N/A     66  60  81 S9        29.94F
MOBRIDGE       PTSUNNY   71  67  87 S6        29.96S
$$

SDZ012>016-024>037-041>051-057-063-072>074-271600-
SOUTHWEST AND SOUTH CENTRAL SOUTH DAKOTA

CITY           SKY/WX    TMP DP  RH WIND       PRES   REMARKS
RAPID CTY ARPT LGT RAIN  67  61  81 NW5       30.05R
PIERRE         CLOUDY    70  65  84 NW7       29.96S
CUSTER         CLOUDY    63  55  75 NW6       30.18R
ELLSWORTH AFB  LGT RAIN  66  63  87 SW3       30.04
PHILIP         CLOUDY    68  62  81 N9        29.97S
PINE RIDGE     CLOUDY    69  56  62 NW10      30.03R
WINNER         FAIR      75  66  73 SE16      29.93S
$$

SDZ004>011-016>023-039-040-271600-
NORTHEAST SOUTH DAKOTA

CITY           SKY/WX    TMP DP  RH WIND       PRES   REMARKS
ABERDEEN       PTSUNNY   73  65  75 CALM      29.95F
WATERTOWN      CLOUDY    67  63  87 SW5       30.01R
BROOKINGS      CLOUDY    64  61  88 NW7       30.01R
$$

SDZ017-020-022-023-036>040-048>070-271600-
SOUTHEAST SOUTH DAKOTA

CITY           SKY/WX    TMP DP  RH WIND       PRES   REMARKS
SIOUX FALLS    CLOUDY    70  64  81 S6        29.96R
HURON          CLOUDY    66  64  93 SE12      29.92F
MITCHELL       CLOUDY    70  65  84 E6        29.96S
YANKTON        CLOUDY    66  63  88 SE10G21   29.94F
$$

ABBREVIATIONS USED IN REMARKS
   TC - TEMPERATURE IN CELSIUS
  WCI - WIND CHILL INDEX
   HX - HEAT INDEX
  VSB - VISIBILITY




USA.gov is the U.S. government's official web portal to all federal, state and local government web resources and services.